Lapse_Rate
6.9 6.6 5.8 6.9 6.7 6.1 5.8 5.4 5.0 5.1 5.6 5.5 5.6 5.7 5.7 6.2 6.3 6.9 6.8 6.7 6.9 6.4 6.6 7.5 7.9 8.3 8.5 8.6 9.1 8.9 8.3 8.2 7.7 7.5 7.3 7.5 7.0 6.6 6.3 5.8 5.3 5.2 4.8 5.5
6.5 6.5 6.8 6.7 6.5 5.7 5.4 5.2 5.0 5.2 5.6 5.1 5.3 6.2 6.0 6.7 7.0 6.9 6.9 6.9 6.8 6.7 6.9 7.5 7.8 8.1 8.2 8.5 8.9 8.7 8.5 8.1 7.7 7.2 7.3 7.4 6.9 6.4 6.0 5.6 5.3 5.2 4.8 5.1
6.5 7.1 7.3 7.0 6.4 5.9 5.7 5.4 5.3 5.2 5.3 5.5 4.9 5.7 6.4 6.7 6.8 7.4 7.2 6.7 6.6 6.6 7.1 7.5 7.9 8.1 8.3 8.5 8.8 8.8 8.5 8.0 7.5 7.2 7.4 7.1 6.7 6.4 5.8 5.7 5.7 5.3 5.1 5.2
6.6 6.9 6.9 6.8 6.6 6.1 5.7 5.7 5.5 5.4 5.1 5.2 4.9 5.1 5.5 5.8 7.4 7.0 6.0 5.8 6.5 6.7 7.0 7.6 8.0 8.2 8.4 8.8 8.7 8.7 8.3 7.9 7.5 7.4 7.3 7.0 6.7 6.7 6.3 5.7 5.5 5.2 5.0 5.1
6.7 7.2 7.4 6.5 6.4 6.3 5.8 5.8 5.6 5.5 5.1 4.4 4.6 4.5 4.7 6.3 6.7 6.2 5.7 5.8 6.2 7.1 7.3 7.7 8.2 8.6 8.7 8.8 8.8 8.5 8.1 7.9 7.5 7.4 7.4 6.8 6.7 6.6 6.4 5.8 5.3 5.1 4.9 4.9
7.1 7.1 7.0 6.8 6.5 6.5 6.1 5.8 5.8 5.4 5.0 4.9 5.1 4.9 5.1 6.7 6.0 6.4 6.2 6.0 6.3 6.8 7.6 7.9 8.4 9.0 8.7 8.8 8.7 8.4 8.0 7.8 7.4 7.6 7.4 6.7 6.5 6.5 6.2 5.8 5.8 5.4 4.9 4.9
6.3 6.7 6.7 6.6 6.3 6.1 5.9 5.7 6.1 5.7 5.3 5.7 5.4 4.6 5.8 6.2 5.7 5.6 6.5 6.8 7.1 7.4 7.7 8.2 8.8 8.8 8.8 9.0 8.6 8.4 7.9 7.7 7.5 7.5 7.4 6.7 6.4 6.3 6.3 5.8 5.8 5.1 5.1 5.1
6.4 6.6 6.7 6.7 6.5 6.3 6.0 5.9 6.3 6.3 6.1 6.1 5.7 5.6 6.0 5.8 5.6 5.8 6.1 7.0 7.3 7.3 8.0 8.1 8.5 8.6 8.6 8.9 8.7 8.3 7.9 7.6 7.6 7.6 7.5 6.9 6.4 6.1 6.1 5.7 5.6 5.5 5.0 4.8
6.8 6.6 6.5 6.7 6.5 6.3 5.8 5.7 5.9 5.7 5.7 5.7 6.0 6.6 6.4 5.9 6.0 6.4 6.5 6.8 7.5 7.7 8.1 8.2 8.4 8.5 8.6 8.9 8.9 8.5 7.8 7.5 7.6 7.7 7.6 7.2 6.7 6.2 6.0 5.9 5.4 5.3 4.9 5.0
7.5 6.8 6.5 6.5 6.4 6.2 6.1 6.0 5.9 5.7 5.7 5.6 6.5 6.5 6.9 6.3 6.3 6.7 7.0 7.1 7.4 8.4 8.4 8.7 8.6 8.6 8.6 9.0 8.8 8.4 7.6 7.4 7.6 7.6 7.5 7.3 6.9 6.5 6.0 5.8 5.4 5.3 5.5 5.4
7.8 7.7 7.0 7.2 6.8 6.6 6.1 6.0 6.0 5.8 5.6 6.2 6.2 7.1 6.4 5.9 5.9 6.3 6.9 6.8 7.1 8.2 8.6 8.9 8.8 9.0 8.9 8.8 8.6 8.1 7.6 7.5 7.6 7.5 7.4 7.3 7.0 6.7 6.2 5.9 5.6 5.6 5.6 5.6
7.7 7.7 7.5 7.1 6.9 6.7 6.4 6.3 6.0 5.7 5.8 5.4 5.4 6.3 6.5 6.6 6.4 6.4 6.4 6.6 7.0 7.8 8.3 8.5 8.8 8.9 8.9 8.9 8.5 8.1 7.6 7.5 7.5 7.4 7.3 7.3 7.2 6.9 6.4 6.0 5.9 6.0 6.0 5.9
7.7 7.7 7.4 7.0 6.7 6.4 6.4 6.3 6.1 5.5 5.2 5.5 5.9 6.5 6.5 6.7 6.8 6.4 6.9 6.4 6.8 7.2 8.1 8.7 8.8 9.0 8.8 8.7 8.4 7.8 7.5 7.5 7.5 7.5 7.3 7.3 7.2 6.9 6.8 6.5 6.3 6.2 6.1 6.1
7.5 7.6 7.5 7.6 7.2 6.8 6.7 6.6 6.3 5.8 5.5 5.8 5.5 5.6 7.1 6.8 6.6 6.2 7.0 6.6 6.4 6.8 7.8 8.2 8.1 8.4 8.5 8.4 8.1 7.6 7.4 7.4 7.5 7.5 7.4 7.3 7.3 7.2 7.0 6.7 6.6 6.5 6.5 6.4
7.1 7.4 7.6 7.4 7.0 6.9 6.8 6.9 6.6 6.3 6.3 5.1 6.4 5.5 6.8 6.2 5.9 5.9 5.9 6.3 6.0 6.3 6.5 6.6 8.4 8.0 8.0 7.9 7.8 7.4 7.2 7.5 7.5 7.5 7.5 7.5 7.5 7.5 7.4 7.3 7.1 7.0 6.8 6.7
7.0 6.9 7.1 7.1 7.0 6.8 6.7 6.9 6.8 6.4 6.1 5.7 5.4 5.7 5.6 5.9 5.7 5.6 5.8 5.9 5.9 6.2 6.3 6.2 7.2 7.6 8.1 8.1 7.8 7.5 7.5 7.5 7.5 7.7 7.7 7.7 7.7 7.6 7.6 7.6 7.6 7.5 7.4 7.4
7.0 6.9 7.0 6.9 7.0 6.8 6.6 6.4 6.2 6.2 6.3 5.7 5.5 5.6 5.8 5.5 5.8 5.6 5.7 5.4 5.6 5.9 6.5 6.4 6.5 7.3 7.5 7.7 7.5 7.3 7.2 7.4 7.5 7.5 7.6 7.7 7.7 7.7 7.7 7.6 7.6 7.6 7.5 7.5
6.9 6.8 6.8 6.8 6.6 6.6 6.5 6.4 6.5 6.3 6.4 6.2 5.6 5.3 5.5 5.3 5.9 5.6 5.5 5.3 5.3 5.5 6.2 6.3 6.3 6.5 7.4 7.5 7.1 6.9 6.5 6.4 6.6 6.7 6.9 7.1 7.3 7.5 7.5 7.4 7.4 7.4 7.4 7.3
7.0 6.6 6.6 6.1 6.1 6.3 6.6 6.3 6.1 5.6 6.1 5.3 5.2 5.6 5.8 5.2 5.6 5.6 5.7 5.5 5.4 5.1 5.8 6.2 6.3 6.4 6.6 6.6 6.5 6.2 6.1 5.9 6.2 6.3 6.8 7.3 7.5 7.5 7.4 7.3 7.3 7.3 7.4 7.3
7.0 6.4 6.1 5.8 6.1 6.2 6.7 6.5 5.9 5.5 5.6 5.5 5.1 5.4 5.6 5.9 5.4 5.7 5.4 5.6 5.2 5.1 4.6 5.2 5.6 6.0 6.2 6.1 6.1 5.6 5.4 5.7 5.9 5.9 6.9 7.1 7.2 7.2 7.1 7.0 7.1 7.0 6.9 6.9
6.8 6.4 5.9 5.8 6.0 6.2 6.5 6.1 6.0 5.8 5.4 5.0 4.7 5.2 5.8 5.3 5.5 5.5 5.5 5.3 5.1 5.2 5.1 3.9 4.7 5.0 5.1 5.4 5.6 5.6 5.3 5.5 5.6 5.5 6.2 6.8 6.9 7.0 7.0 7.0 7.0 6.9 6.7 6.6
6.8 6.6 6.5 6.1 6.1 6.3 6.2 6.0 5.7 5.5 5.4 5.3 5.0 4.9 4.9 4.9 4.8 5.0 5.0 5.1 4.9 4.8 4.9 4.7 4.5 4.3 4.3 4.3 4.6 4.4 4.4 5.0 5.4 5.4 5.8 6.2 6.6 6.5 6.6 6.6 6.6 6.5 6.5 6.4
6.9 6.5 6.4 6.3 6.1 6.5 5.9 5.5 5.5 5.7 5.7 5.8 5.6 5.4 5.1 4.8 4.7 4.6 4.6 4.6 4.5 4.4 4.4 4.4 4.5 4.2 4.2 4.2 4.2 4.2 4.2 4.4 5.0 5.3 5.5 5.8 5.8 5.7 5.8 6.1 6.2 6.1 6.1 6.2
6.5 6.5 6.2 6.2 6.1 6.1 5.7 5.5 5.4 5.8 5.8 5.9 5.8 5.6 5.4 5.2 4.9 4.6 4.3 4.3 4.3 4.1 4.0 4.3 4.5 4.4 4.1 4.0 3.8 4.0 4.0 4.6 4.9 5.2 5.4 5.6 5.6 5.8 6.0 6.3 6.2 6.1 6.1 6.2
6.2 6.0 5.8 5.8 6.1 6.0 6.0 5.6 5.6 5.6 5.7 5.8 5.8 5.6 5.5 5.5 5.3 5.1 4.9 4.6 4.4 4.3 4.2 4.4 4.7 4.7 4.7 4.6 4.5 4.5 4.7 4.9 5.3 5.5 5.6 5.5 5.7 5.9 6.0 6.1 6.1 6.2 6.3 6.3
5.7 5.6 5.7 5.8 6.0 6.1 6.2 6.1 5.9 5.5 5.6 5.7 5.5 5.5 5.5 5.5 5.4 5.3 5.1 5.0 4.8 4.6 4.5 4.5 4.5 4.8 5.0 5.1 5.2 5.0 5.0 5.1 5.2 5.4 5.5 5.6 5.8 5.9 5.9 5.8 5.8 6.0 6.1 6.0
Wind_Speed
5 7 14 18 16 13 3 4 8 6 8 12 18 25 16 15 17 19 19 19 17 18 18 14 10 8 12 15 17 18 17 15 10 8 8 8 7 7 7 8 13 16 12 17
4 16 11 9 10 10 13 14 14 8 9 7 14 29 22 22 24 23 22 23 21 20 18 15 8 9 14 15 16 17 17 16 13 10 7 3 4 6 7 8 12 17 18 14
13 5 10 11 7 10 11 13 8 9 8 11 14 18 7 6 12 19 22 25 23 22 19 15 11 12 14 16 17 18 17 16 13 12 7 4 3 1 6 7 7 13 18 17
11 7 5 9 11 12 13 9 9 6 4 4 6 10 8 2 8 12 15 15 18 21 19 15 13 14 16 14 14 17 15 15 13 13 11 12 7 7 3 5 5 8 12 14
6 7 8 12 8 9 4 4 4 4 5 4 4 5 4 12 8 10 15 14 17 19 19 16 13 14 15 15 13 15 15 13 13 11 10 8 8 4 5 2 11 13 10 10
6 2 4 4 4 7 5 2 3 3 4 5 9 9 3 4 9 22 18 17 14 14 15 9 11 14 16 15 13 14 14 14 13 11 11 11 10 7 4 4 8 8 8 8
3 3 2 2 5 2 4 3 2 2 4 5 4 9 12 15 8 12 15 17 16 16 8 9 14 14 17 17 15 15 15 15 13 11 10 10 10 9 9 5 7 11 9 8
10 5 9 5 4 5 9 5 3 3 3 2 3 7 2 3 5 8 13 15 16 15 14 7 12 16 17 18 15 17 17 16 13 11 10 9 9 6 5 6 4 7 8 9
7 2 2 3 3 5 5 4 0 2 4 4 4 5 5 6 9 12 13 17 21 20 15 12 14 15 17 19 16 16 17 15 13 11 9 9 9 8 7 7 6 4 9 10
5 6 0 3 3 2 2 4 3 2 2 3 4 6 6 7 13 16 19 19 19 22 20 9 12 15 14 15 13 13 14 15 14 11 9 8 7 7 7 6 7 7 6 10
4 3 4 5 4 7 4 2 2 1 2 2 2 1 2 8 13 13 16 18 17 20 14 2 6 12 14 12 12 12 12 13 13 11 13 10 8 6 6 7 7 8 8 9
2 3 4 3 1 4 2 4 4 2 2 2 4 6 4 12 14 12 14 14 15 20 12 5 6 10 11 11 12 12 11 14 12 11 12 11 11 9 7 7 8 8 10 11
4 1 5 3 3 2 3 4 2 3 2 5 4 3 3 17 16 16 13 13 13 18 13 4 6 7 10 10 11 12 14 14 13 13 12 10 9 11 10 9 8 8 8 9
2 3 1 3 5 3 2 3 2 3 3 5 10 17 21 17 19 16 11 12 13 15 17 14 5 7 9 9 10 10 12 12 12 12 11 11 10 10 11 10 10 9 9 10
3 4 4 2 4 3 3 6 6 7 12 7 16 16 22 19 18 7 7 10 14 17 17 16 14 11 9 8 8 8 8 9 10 10 10 9 9 8 7 8 9 10 11 11
4 2 2 2 1 4 6 11 10 10 10 13 17 20 14 11 12 6 8 11 13 14 14 14 15 15 13 13 10 11 9 6 8 6 3 4 5 6 7 7 7 7 8 8
2 3 2 3 2 7 4 1 4 7 8 9 13 14 16 9 12 9 9 11 13 13 12 14 14 13 12 12 11 12 12 13 12 12 10 10 9 9 8 2 3 5 6 7
3 3 1 2 4 1 2 8 3 5 12 11 13 17 13 4 12 12 10 10 14 12 11 12 11 13 13 12 13 13 14 13 12 12 12 11 10 10 10 9 9 8 8 10
2 3 2 1 1 5 2 4 5 9 15 14 13 18 18 15 16 13 11 11 11 13 8 9 10 12 12 15 13 16 14 14 12 14 13 11 10 11 11 11 10 8 10 11
4 2 2 1 2 2 2 10 11 8 4 15 14 18 16 18 5 4 11 9 12 10 12 10 11 12 14 13 15 16 16 15 16 14 11 11 12 13 13 11 11 10 11 11
2 1 3 2 2 5 10 15 10 3 5 9 15 13 22 11 9 10 10 12 12 12 11 10 14 14 14 12 14 19 16 15 15 13 12 13 13 14 12 11 10 10 10 10
1 2 2 2 3 3 14 5 5 3 2 8 11 14 15 15 13 12 13 14 15 15 14 13 14 13 15 16 15 15 15 12 13 13 14 13 15 11 10 13 11 11 10 10
2 4 3 4 3 6 8 9 9 11 7 10 10 11 11 13 13 12 13 14 14 14 13 14 13 13 15 16 15 14 13 11 12 14 13 13 15 13 13 13 12 10 11 9
7 8 2 2 6 10 12 11 12 11 11 13 12 11 10 13 11 12 12 12 13 15 16 15 16 17 16 14 14 13 10 10 11 13 13 13 14 14 14 11 10 9 9 9
3 7 7 2 8 7 13 12 10 11 10 13 13 13 13 12 14 12 13 13 13 13 14 13 14 14 15 15 14 12 11 9 10 10 11 10 10 14 14 15 11 11 13 12
5 4 3 3 4 9 8 10 11 11 12 12 12 15 16 15 14 14 14 13 13 13 13 12 13 12 12 12 13 12 11 9 9 9 8 8 8 9 9 10 12 26 25 26
Wind_Direction
185 213 220 215 220 229 219 247 265 277 275 288 278 282 287 281 278 277 268 261 267 270 274 275 267 222 194 184 178 180 171 171 161 174 181 195 196 194 193 188 184 187 189 177
162 232 222 211 208 222 237 258 265 277 257 282 292 287 288 271 263 259 257 255 254 260 262 265 243 200 199 184 179 174 175 167 177 183 179 183 181 201 196 196 196 188 191 189
208 201 203 183 192 212 225 237 246 263 292 278 291 284 274 274 251 253 251 251 254 248 250 256 226 206 199 189 181 177 171 165 175 176 172 158 147 173 195 204 201 193 189 185
224 204 153 183 218 213 245 214 232 239 291 271 13 296 280 283 287 266 264 257 247 247 245 247 226 206 200 187 176 173 169 167 173 176 183 194 204 208 205 204 171 161 179 176
193 168 191 218 197 181 225 145 184 211 248 282 240 243 324 281 300 332 328 293 256 247 247 243 216 204 188 173 166 171 166 167 169 166 180 186 200 202 184 183 161 154 148 148
174 142 173 215 150 179 146 199 264 219 224 254 228 216 284 307 358 330 337 334 325 295 260 237 194 176 174 173 163 164 159 170 166 172 181 188 189 175 161 159 147 142 141 142
119 164 161 166 122 101 161 163 188 198 201 244 187 214 264 313 353 344 341 340 339 330 298 183 178 177 175 173 170 161 168 167 166 171 172 174 174 174 166 154 157 147 142 143
188 202 187 183 190 176 173 200 223 242 216 196 232 233 234 28 358 12 9 355 344 339 325 240 197 179 183 174 174 168 170 166 164 165 161 165 164 159 157 149 136 155 149 151
164 125 91 155 141 165 156 201 294 259 236 259 231 258 209 14 4 14 19 10 352 337 318 278 206 187 183 176 173 173 169 160 162 167 155 157 155 151 155 154 143 139 147 151
184 118 149 154 113 77 187 131 178 203 237 245 243 254 239 358 348 352 4 5 3 341 329 282 196 183 180 176 161 158 165 162 160 166 156 158 154 151 155 142 144 147 131 151
161 126 159 157 196 164 157 167 228 298 229 280 302 259 146 11 344 335 355 356 8 347 350 24 180 171 171 155 156 154 160 159 154 170 164 159 160 149 152 164 165 153 147 151
211 111 139 110 115 164 138 157 186 190 142 268 276 264 92 8 8 1 355 0 4 359 347 43 142 151 152 149 148 155 159 159 160 165 163 161 159 164 174 181 182 171 173 173
186 121 124 122 103 73 108 87 144 156 209 247 276 267 276 336 348 0 3 7 15 17 352 45 105 130 138 144 150 155 161 158 159 164 170 172 166 167 175 178 175 183 182 183
79 93 57 122 106 124 156 212 247 188 235 279 264 288 296 313 318 339 15 16 26 27 8 12 93 116 129 133 138 157 160 158 158 167 177 174 175 179 178 177 179 184 189 188
63 86 41 53 139 165 217 240 241 234 252 256 278 285 290 302 304 330 49 39 35 30 14 17 17 44 70 96 107 133 141 150 152 167 185 188 175 174 179 184 183 186 190 196
8 95 74 286 93 155 243 248 257 261 260 254 271 281 289 314 312 97 70 61 50 33 15 20 22 30 41 49 61 61 47 135 139 137 142 177 176 183 189 186 184 186 190 195
65 123 144 228 321 304 254 50 314 281 283 290 291 298 320 320 49 56 72 76 68 42 17 22 25 24 33 46 49 61 62 58 64 70 56 50 55 64 53 47 191 204 205 192
122 96 30 279 295 166 132 317 293 293 297 331 318 311 307 128 94 59 39 85 77 57 23 23 22 31 33 42 56 56 58 64 59 60 52 43 52 54 49 51 50 45 55 47
126 141 128 262 259 286 96 37 353 342 316 6 321 304 287 140 104 58 50 42 60 77 31 30 25 32 41 45 48 59 53 60 63 56 46 41 51 60 54 49 44 50 69 64
96 41 309 290 348 323 57 336 319 301 294 2 343 331 284 162 126 77 46 42 58 46 60 28 34 35 37 46 56 60 56 47 47 45 37 41 49 55 57 53 53 56 71 79
91 110 233 230 279 275 358 325 313 336 348 0 9 16 56 65 65 85 66 49 45 47 45 44 42 37 28 35 48 60 53 52 52 52 48 48 53 56 56 58 55 62 68 72
296 211 211 183 207 283 354 359 25 357 70 51 33 31 56 73 67 65 57 49 42 44 40 35 51 37 30 33 47 59 55 48 58 56 52 50 54 51 57 65 61 61 69 71
100 13 321 338 45 49 36 58 27 31 51 55 60 56 59 65 61 58 61 53 47 46 44 41 47 49 36 34 29 46 46 48 60 65 56 56 59 57 55 58 59 58 57 63
4 23 301 322 62 58 47 50 45 40 48 54 56 64 67 75 65 61 57 53 50 45 41 39 41 40 35 32 33 31 34 49 59 66 64 56 61 64 59 57 54 56 55 60
352 322 324 60 127 98 43 38 37 38 46 62 58 57 65 73 68 66 61 55 52 49 45 44 46 45 41 36 37 27 27 48 67 68 71 71 66 68 68 62 59 64 58 62
346 345 344 23 346 84 52 44 45 52 44 47 63 63 58 63 69 68 65 59 57 54 51 52 51 52 45 43 41 35 29 47 71 73 68 67 71 72 72 77 73 57 62 61